BEIDOU M3

Last updated on April 1, 2019, 3:15 a.m. UTC

1 38250U 12018A   19090.74388698 -.00000093  00000-0  10000-3 0  9999
2 38250  56.5992  32.3725 0022351 241.8535   9.4581  1.86232911 47224
UTC
Height (km)
Latitude
Longitude
Inclination
Orbital Period
UTC large
Height (km)
Speed (km/s)
/
Latitude / Longitude
Inclination (degrees)
Orbital Period (minutes)
Azimuth
Elevation
Range (km)
Doppler Factor
iOS Compass Heading
iOS Angle

Next 30 passes for location: Hong Kong

Rise time Rise Azimuth (degrees) Set time Set Azimuth (degrees) Duration Max altitude (degrees)

No matching passes for this satellites